Location: Pasadena, ca
(34.1243°N, 118.1037°W)
Time: 22:35:08
(UTC-08:00)

OTV 5 (USA 277) - Pass Details

Date: 09 October 2017
Orbit: 404 x 417 km, 43.0° (Epoch: 07 September)

Event Time Altitude Azimuth Distance (km) Brightness Sun altitude
Rises 19:01:53 0° 231° (SW) 2,342 ? -8.4°
Reaches altitude 10° 19:04:00 10° 227° (SW) 1,482 ? -8.8°
Maximum altitude 19:07:18 58° 147° (SSE) 488 ? -9.5°
Enters shadow 19:10:06 14° 69° (ENE) 1,286 ? -10.1°
